Tracking 33747 objects as of 11-Apr-2026
HD Live streaming from Space Station
objects crossing your sky now

STARLINK-37193

Track STARLINK-37193 now!
10-day predictions
STARLINK-37193 is classified as:


NORAD ID: 68390
Int'l Code: 2026-063L
Perigee: 297.3 km
Apogee: 299.3 km
Inclination: 97.3 °
Period: 90.3 minutes
Semi major axis: 6669 km
RCS: Unknown
Launch date: March 26, 2026
Source: United States (US)
Launch site: AIR FORCE WESTERN TEST RANGE (AFWTR)
Your satellite tracking list
Your tracking list is empty




NASA's NSSDC Master Catalog

Two Line Element Set (TLE):
1 68390U 26063L   26100.50002315 -.01977636  10897-2 -54756-2 0  9995
2 68390  97.2730 242.0151 0001539  67.1651 153.8330 15.93971308  1904
Source of the keplerian elements: AFSPC